[Iaude] MPEC T56: 2023 TL1 [a=1.36,e=0.31,i=21.0,H=23.1]
    mpec at marsden.cfa.harvard.edu 
    mpec at marsden.cfa.harvard.edu
       
    Fri Oct  6 20:54:21 EDT 2023
    
    
  
M.P.E.C. 2023-T56                               Issued 2023 October 7, 00:52 UT
     The Minor Planet Electronic Circulars contain information on unusual
         minor planets, routine data on comets and natural satellites,
         and occasional editorial announcements.  They are published
    on behalf of Division F of the International Astronomical Union by the
          Minor Planet Center, Smithsonian Astrophysical Observatory,
                          Cambridge, MA 02138, U.S.A.
			  
             Prepared using the Tamkin Foundation Computer Network
                              MPC at CFA.HARVARD.EDU
            URL https://www.minorplanetcenter.net/    ISSN 1523-6714
                                    2023 TL1                                    
Observations:
     K23T01L* C2023 10 05.28276923 12 52.136+19 06 14.18         21.04wXET056F52
     K23T01L  C2023 10 05.29423023 12 54.110+19 04 48.94         20.99wXET056F52
     K23T01L  C2023 10 05.31719223 12 58.057+19 01 56.73         20.97wXET056F52
     K23T01L  C2023 10 05.39664023 13 11.595+18 52 01.71         20.84GVET056F52
     K23T01L  C2023 10 05.39728423 13 11.702+18 51 56.88         20.99GVET056F52
     K23T01L 7C2023 10 05.92306023 14 50.588+17 46 44.26         20.9 GVET056Z84
     K23T01L 7C2023 10 05.92843423 14 51.469+17 46 04.83         20.8 GVET056Z84
     K23T01L 7C2023 10 05.93381823 14 52.373+17 45 25.33         20.7 GVET056Z84
     K23T01L  C2023 10 06.13931923 15 31.355+17 20 21.69         20.5 GVET056H01
     K23T01L  C2023 10 06.14262223 15 31.915+17 19 57.78         20.6 GVET056H01
     K23T01L  C2023 10 06.15519023 15 34.020+17 18 26.52         20.4 GVET056H01
     K23T01L  C2023 10 06.15896323 15 34.648+17 17 59.19         20.6 GVET056H01
     K23T01L KB2023 10 06.88152923 17 43.70 +15 51 17.2          20.4 GVET056I93
     K23T01L KB2023 10 06.88505023 17 44.27 +15 50 51.6          20.7 GVET056I93
     K23T01L KB2023 10 06.88840423 17 44.83 +15 50 28.6          20.8 GVET056I93
     K23T01L KC2023 10 06.90907423 17 47.69 +15 48 01.9          20.7 GVET056L01
     K23T01L pC2023 10 06.91159823 17 48.03 +15 47 44.5          20.5 GVET056L01
     K23T01L KC2023 10 06.91411923 17 48.46 +15 47 26.6          20.9 GVET056L01
Observer details:
F52 Pan-STARRS 2, Haleakala.  Observers J. Bulger, T. Lowe, P. Minguez, A.
    Schultz, I. Smith, K. Chambers, T. Dukes.  Measurers K. Chambers, T. de
    Boer, J. Bulger, J. Fairlamb, H. Gao, M. Huber, C.-C. Lin, T. Lowe, E.
    Magnier, P. Minguez, Y. Ramanjooloo, A. Schultz, I. Smith, R. Wainscoat,
    R. Weryk, S. Chastel.  1.8-m Ritchey-Chretien + CCD.
H01 Magdalena Ridge Observatory, Socorro.  Observers W. H. Ryan, E. V. Ryan.
    Measurer W. H. Ryan.  2.4-m f/8.9 Ritchey-Chretien + CCD.
I93 St Pardon de Conques.  Observer F. Losse.  0.40-m f/3.7 reflector + CMO.
L01 Visnjan Observatory, Tican.  Observer K. Korlevic.  1.0-m f/2.9 reflector
    + CCD.
Z84 Calar Alto-Schmidt.  Observers F. Ocana, M. Micheli, R. Kresken, L.
    Conversi.  Measurers F. Ocana, M. Micheli.  0.8-m f/3 Schmidt + CCD.
Orbital elements:
2023 TL1                                                 Earth MOID = 0.1641 AU
Epoch 2023 Sept. 13.0 TT = JDT 2460200.5                Veres                   
M  34.08503              (2000.0)            P               Q                  
n   0.62120931     Peri.   89.24978     +0.28464128     +0.95184148             
a   1.3603294      Node   198.55242     -0.95830099     +0.27939374             
e   0.3063669      Incl.   20.97966     -0.02526964     +0.12624157             
P   1.59           H   23.14          G   0.15           U   9                  
Residuals in seconds of arc
231005 F52  0.0   0.1-    231005 Z84  0.1-  0.1+    231006 I93  0.0   0.2-
231005 F52  0.0   0.3+    231005 Z84  0.1-  0.1+    231006 I93  0.0   0.9-
231005 F52  0.0   0.2-    231006 H01  0.0   0.1-    231006 I93  0.2+  0.2-
231005 F52  0.1+  0.0     231006 H01  0.0   0.0     231006 L01  0.6+  0.2-
231005 F52  0.0   0.0     231006 H01  0.0   0.1-    231006 L01  0.4-  0.3+
231005 Z84  0.2+  0.0     231006 H01  0.0   0.1-    231006 L01  0.1-  0.3+
Ephemeris:
2023 TL1                 a,e,i = 1.36, 0.31, 21                  q = 0.9436
Date    TT    R. A. (2000) Decl.     Delta      r    Elong.  Phase     V
2023 09 07    19 29 13.8 +70 43 54   0.2188  1.0513    95.4    72.7    22.5
...
2023 09 22    22 11 17.6 +49 26 51   0.1754  1.1145   125.3    47.4    21.4
...
2023 09 30    22 53 42.1 +30 55 52   0.1773  1.1508   144.6    30.3    21.0
...
2023 10 06    23 15 04.4 +17 37 40   0.1946  1.1788   154.6    21.3    21.0
2023 10 07    23 18 03.7 +15 37 47   0.1988  1.1835   155.5    20.5    21.0
2023 10 08    23 20 55.3 +13 42 30   0.2033  1.1882   156.1    19.9    21.1
...
2023 10 14    23 35 51.3 +03 52 32   0.2365  1.2165   155.3    20.1    21.4
...
2023 10 22    23 51 46.5 -05 03 49   0.2943  1.2545   147.9    24.9    22.1
...
2023 11 06    00 15 48.7 -13 14 21   0.4294  1.3248   133.7    32.8    23.3
M. P. C. Staff               (C) Copyright 2023 MPC           M.P.E.C. 2023-T56
    
    
More information about the Iaude
mailing list